Location: Ernsee
(50.8780°N, 12.0389°E)
Time: 19:03:33
(UTC+00:00)

Cosmos 2227 Rocket - Pass Details

Date: 20 January 2020
Orbit: 841 x 843 km, 71.0° (Epoch: 16 February)

Event Time Altitude Azimuth Distance (km) Brightness Sun altitude
Exits shadow 04:07:31 18° 185° (S) 1,959 4.0 -27.3°
Drops below altitude 10° 04:08:56 10° 179° (S) 2,453 4.6 -27.1°
Sets 04:11:27 0° 173° (S) 3,383 5.4 -26.7°
